Location: Unnamed
(47.6264°N, 122.3366°W)
Time: 11:51:46
(UTC-07:00)

ISS - Visible Passes

Search period start: 23 June 2021 00:00
Search period end: 03 July 2021 00:00
Orbit: 417 x 422 km, 51.6° (Epoch: 23 June)

Date Brightness Start Highest point End Pass type
(mag) Time Alt. Az. Time Alt. Az. Time Alt. Az.
27 Jun -1.7 04:32:24 10° S 04:34:50 19° SE 04:37:16 10° E visible
28 Jun -1.3 03:46:10 10° SSE 03:47:34 12° SE 03:48:58 10° ESE visible
30 Jun -2.5 03:47:05 16° SSW 03:49:04 28° SE 03:52:00 10° E visible
01 Jul -2.0 03:01:17 18° SSE 03:01:44 19° SE 03:04:12 10° E visible
01 Jul -3.7 04:34:49 10° WSW 04:38:12 88° NNW 04:41:35 10° ENE visible
02 Jul -1.2 02:15:25 11° ESE 02:15:25 11° ESE 02:15:54 10° ESE visible
02 Jul -3.7 03:48:22 18° SW 03:50:44 65° SSE 03:54:05 10° ENE visible
